Карточка аэропорта URRP

Внимание!
Информация на этой странице в стадии наполнения.
Если вы не увидели какой-то информации, или заметили неточность - пожалуйста сообщите нам!
Спасибо!
Команда RU-STAFF
Название аэропортаПлатов
Название аэропорта (англ.)Platov
Превышение282 ft. (86 m.)
Координаты47°29.634', 39°55.482'
Высота перехода3500 ft
Эшелон переходаFL50 (QNH >= 996); FL60 (QNH < 996)
Коды ответчика1001-1017
Зона ОрВДРостов-на-Дону РПИ (URRV)
Данные METARURRP 161930Z 33005MPS 9999 FEW///CB 26/16 Q1009 R05/CLRD70 TEMPO 34006G12MPS RMK QFE752/1002
Проноз погоды (TAF)URRP 161657Z 1618/1718 30003G11MPS 9999 SCT030CB TX34/1713Z TN24/1702Z TEMPO 1618/1703 6000 -TSRA SCT016 BKN020CB BECMG 1703/1706 26003G12MPS PROB40 TEMPO 1706/1718 -TSRA SCT020CB
NOTAMshow/hide NOTAM
AWOS   TABLE

Информация о ВПП

ВПП Длина ВПП (м.) Покрытие Курс ВПП Частота ILS
053900Цементобетон46111.5
233900Цементобетон226110.9

Диспетчерские позиции

Позывной Наименование органа УВД Частота
URRP_GNDПлатов - руление119.0
URRP_TWRПлатов-Вышка119.7
URRP_R_APPПлатов - Круг121.2
URRP_DELПлатов-деливери127.1
URRP_APPПлатов-подход128.2



Спутниковое изображение